Tracking 19562 objects as of 24-Mar-2019
HD Live streaming from Space Station
objects crossing your sky now

NATO 4B

Track NATO 4B now!
NATO 4B is classified as:


NORAD ID: 22921
Int'l Code: 1993-076A
Perigee: 36,259.4 km
Apogee: 36,326.2 km
Inclination: 12.4 °
Period: 1,461.7 minutes
Semi major axis: 42663 km
RCS: 14.1741 m2 (large)
Launch date: December 8, 1993
Source: North Atlantic Treaty Organization (NATO)
Launch site: AIR FORCE EASTERN TEST RANGE (AFETR)

Encrypted; X-band, UHF, C-band; NATO and British Ministry of Defence; secure military and diplomatic voice and data communications.
aabbcc
Your satellite tracking list
Your tracking list is empty




NASA's NSSDC Master Catalog

Two Line Element Set (TLE):
1 22921U 93076A   19081.21809330 -.00000178 +00000-0 +00000-0 0  9993
2 22921 012.4125 017.2780 0007829 331.9582 215.6008 00.98517450092568
Source of the keplerian elements: AFSPC